Weather History for PASK - February, 2013

Change the Weather History Date:

Sunday, February 17, 2013

  Actual Average Record
Temperature  
Mean Temperature -26 °F -  
Max Temperature -20 °F 5 °F 33 °F (2015)
Min Temperature -32 °F -3 °F -32 °F (2013)
Degree Days  
Heating Degree Days 91    
Moisture  
Dew Point -28 °F    
Average Humidity 100    
Maximum Humidity 100    
Minimum Humidity 100    
Precipitation  
Precipitation 0.00 in - - ()
Sea Level Pressure  
Sea Level Pressure 30.31 in    
Wind  
Wind Speed 8 mph (WSW)    
Max Wind Speed 15 mph    
Max Gust Speed 18 mph    
Visibility 9 miles    
Events      
Averages and records for this station are not official NWS values.
T = Trace of Precipitation, MM = Missing Value Source: NWS Daily Summary

Daily Weather History Graph

Daily Weather History Graph

Search for Another Location

Airport or City:

Trip Planner

Search our weather history database for the weather conditions in past years. The results will help you decide how hot, cold, wet, or windy it might be!

Date:

Astronomy

Feb. 17, 2013 Rise Set
Actual Time 9:38 AM AKST 6:10 PM AKST
Civil Twilight 8:42 AM AKST 7:06 PM AKST
Nautical Twilight 7:41 AM AKST 8:07 PM AKST
Astronomical Twilight 6:40 AM AKST 9:08 PM AKST
Moon 10:01 AM AKST (2/17) 4:50 AM AKST (2/17)
Length of Visible Light 10h 23m
Length of Day
8h 31m
Waxing Crescent, 50% of the Moon is Illuminated
Feb 17
Waxing Crescent
Feb 25
Full
Mar 4
Last Quarter
Mar 11
New
Mar 19
First Quarter

Hourly Weather History & Observations

Time (AKST) Temp. Windchill Dew Point Humidity Pressure Visibility Wind Dir Wind Speed Gust Speed Precip Events Conditions
12:16 AM -31.0 °F - - N/A% 30.25 in 10.0 mi Calm Calm - N/A   Clear
12:36 AM -29.2 °F - - N/A% 30.25 in 10.0 mi Calm Calm - N/A   Clear
12:56 AM -29.2 °F - - N/A% 30.25 in 8.0 mi Calm Calm - N/A   Clear
1:16 AM -29.2 °F -44.0 °F - N/A% 30.25 in 10.0 mi West 4.6 mph - N/A   Clear
1:36 AM -29.2 °F -49.7 °F - N/A% 30.24 in 10.0 mi WNW 8.1 mph - N/A   Clear
1:56 AM -29.2 °F -46.2 °F -29.2 °F 100% 30.25 in 10.0 mi West 5.8 mph - N/A   Clear
2:16 AM -29.2 °F -44.0 °F - N/A% 30.25 in 9.0 mi West 4.6 mph - N/A   Clear
2:36 AM -31.0 °F -46.1 °F - N/A% 30.25 in 10.0 mi West 4.6 mph - N/A   Clear
2:56 AM -29.2 °F -49.7 °F - N/A% 30.25 in 10.0 mi West 8.1 mph - N/A   Clear
3:16 AM -29.2 °F -49.7 °F - N/A% 30.25 in 10.0 mi West 8.1 mph - N/A   Clear
3:36 AM -29.2 °F -49.7 °F - N/A% 30.25 in 10.0 mi West 8.1 mph - N/A   Clear
3:56 AM -29.2 °F -49.7 °F - N/A% 30.26 in 10.0 mi West 8.1 mph - N/A   Clear
4:16 AM -29.2 °F -48.1 °F - N/A% 30.25 in 10.0 mi West 6.9 mph - N/A   Clear
4:36 AM -29.2 °F -49.7 °F - N/A% 30.26 in 7.0 mi West 8.1 mph - N/A   Clear
4:56 AM -31.0 °F -50.3 °F - N/A% 30.25 in 10.0 mi West 6.9 mph - N/A   Clear
5:16 AM -31.0 °F -50.3 °F - N/A% 30.25 in 10.0 mi West 6.9 mph - N/A   Clear
5:36 AM -31.0 °F -50.3 °F - N/A% 30.25 in 10.0 mi West 6.9 mph - N/A   Clear
5:56 AM -31.0 °F -51.9 °F - N/A% 30.25 in 10.0 mi West 8.1 mph - N/A   Clear
6:16 AM - - - N/A% 30.25 in 8.0 mi West 11.5 mph - N/A   Clear
6:36 AM -31.0 °F -50.3 °F - N/A% 30.26 in 6.0 mi West 6.9 mph - N/A   Clear
6:56 AM -32.8 °F -58.2 °F - N/A% 30.26 in 9.0 mi WSW 11.5 mph - N/A   Clear
7:16 AM -31.0 °F -54.7 °F - N/A% 30.26 in 10.0 mi West 10.4 mph - N/A   Clear
7:36 AM - - - N/A% 30.25 in 10.0 mi WSW 8.1 mph - N/A   Clear
7:56 AM -31.0 °F -54.7 °F - N/A% 30.26 in 10.0 mi West 10.4 mph - N/A   Clear
8:16 AM - - - N/A% 30.26 in 8.0 mi West 9.2 mph - N/A   Clear
8:36 AM - - - N/A% 30.26 in 4.0 mi West 12.7 mph - N/A   Clear
8:56 AM - - - N/A% 30.26 in 4.0 mi West 9.2 mph - N/A   Clear
9:16 AM -31.0 °F -53.4 °F - N/A% 30.27 in 5.0 mi West 9.2 mph - N/A   Clear
9:36 AM - - - N/A% 30.27 in 5.0 mi West 10.4 mph - N/A   Clear
9:56 AM - - - N/A% 30.26 in 5.0 mi West 11.5 mph - N/A   Clear
10:16 AM - - - N/A% 30.27 in 9.0 mi WSW 9.2 mph - N/A   Clear
10:36 AM -31.0 °F -51.9 °F - N/A% 30.29 in 8.0 mi WSW 8.1 mph - N/A   Clear
10:56 AM - - - N/A% 30.29 in 7.0 mi West 11.5 mph - N/A   Clear
11:16 AM -27.4 °F -50.3 °F - N/A% 30.30 in 5.0 mi West 10.4 mph - N/A   Clear
11:36 AM -27.4 °F -51.4 °F -27.4 °F 100% 30.30 in 5.0 mi West 11.5 mph - N/A   Clear
11:56 AM - - - N/A% 30.30 in 6.0 mi West 10.4 mph - N/A   Clear
12:16 PM - - - N/A% 30.31 in 7.0 mi West 10.4 mph - N/A   Clear
12:36 PM -27.4 °F -50.3 °F - N/A% 30.31 in 8.0 mi West 10.4 mph - N/A   Clear
12:56 PM -25.6 °F -49.2 °F - N/A% 30.31 in 9.0 mi West 11.5 mph - N/A   Clear
1:16 PM -25.6 °F -50.2 °F - N/A% 30.31 in 10.0 mi West 12.7 mph - N/A   Clear
1:36 PM - - - N/A% 30.31 in 10.0 mi West 12.7 mph - N/A   Clear
1:56 PM -23.8 °F -48.9 °F - N/A% 30.33 in 10.0 mi West 13.8 mph - N/A   Clear
2:16 PM - - - N/A% 30.32 in 10.0 mi West 13.8 mph - N/A   Clear
2:36 PM -22.0 °F -46.6 °F - N/A% 30.32 in 10.0 mi West 13.8 mph 18.4 mph N/A   Clear
2:56 PM -22.0 °F -46.6 °F - N/A% 30.32 in 10.0 mi West 13.8 mph - N/A   Clear
3:16 PM - - - N/A% 30.32 in 10.0 mi WSW 12.7 mph - N/A   Clear
3:36 PM - - - N/A% 30.32 in 10.0 mi WSW 15.0 mph 18.4 mph N/A   Clear
3:56 PM -20.2 °F -43.4 °F - N/A% 30.33 in 10.0 mi West 12.7 mph - N/A   Clear
4:16 PM -20.2 °F -44.4 °F - N/A% 30.34 in 10.0 mi WSW 13.8 mph - N/A   Clear
4:36 PM -20.2 °F -43.4 °F - N/A% 30.34 in 10.0 mi WSW 12.7 mph - N/A   Clear
4:56 PM -20.2 °F -42.4 °F - N/A% 30.35 in 10.0 mi WSW 11.5 mph - N/A   Clear
5:16 PM - - - N/A% 30.35 in 10.0 mi WSW 13.8 mph - N/A   Clear
5:36 PM -20.2 °F -43.4 °F - N/A% 30.35 in 10.0 mi WSW 12.7 mph - N/A   Clear
5:56 PM -22.0 °F -45.7 °F - N/A% 30.36 in 10.0 mi West 12.7 mph - N/A   Clear
6:16 PM - - - N/A% 30.36 in 10.0 mi WSW 11.5 mph - N/A   Clear
6:36 PM - - - N/A% 30.37 in 10.0 mi West 13.8 mph - N/A   Clear
6:56 PM - - - N/A% 30.37 in 10.0 mi WSW 12.7 mph - N/A   Clear
7:16 PM -22.0 °F -45.7 °F - N/A% 30.38 in 10.0 mi WSW 12.7 mph - N/A   Clear
7:36 PM - - - N/A% 30.38 in 10.0 mi WSW 12.7 mph - N/A   Clear
7:56 PM - - - N/A% 30.38 in 8.0 mi WSW 11.5 mph - N/A   Clear
8:16 PM -23.8 °F -45.8 °F - N/A% 30.39 in 8.0 mi WSW 10.4 mph - N/A   Clear
8:36 PM - - - N/A% 30.39 in 10.0 mi WSW 11.5 mph 17.3 mph N/A   Clear
8:56 PM - - - N/A% 30.39 in 9.0 mi WSW 11.5 mph - N/A   Clear
9:16 PM - - - N/A% 30.40 in 10.0 mi West 12.7 mph - N/A   Clear
9:36 PM -22.0 °F -46.6 °F - N/A% 30.40 in 10.0 mi WSW 13.8 mph - N/A   Clear
9:56 PM - - - N/A% 30.40 in 10.0 mi WSW 12.7 mph - N/A   Clear
10:16 PM - - - N/A% 30.40 in 10.0 mi WSW 12.7 mph - N/A   Clear
10:36 PM - - - N/A% 30.39 in 10.0 mi WSW 10.4 mph - N/A   Clear
10:56 PM - - - N/A% 30.40 in 10.0 mi WSW 11.5 mph - N/A   Clear
11:16 PM - - - N/A% 30.41 in 10.0 mi WSW 12.7 mph - N/A   Clear
11:36 PM - - - N/A% 30.41 in 10.0 mi West 11.5 mph - N/A   Clear
11:56 PM - - - N/A% 30.42 in 10.0 mi WSW 11.5 mph - N/A   Clear